Location: Haram ta Haram Freeway
(35.0583°N, 51.4202°E)
Time: 06:12:36
(UTC+04:30)

Hubble Space Telescope - Pass Details

Date: 25 July 2021
Orbit: 535 x 539 km, 28.5° (Epoch: 19 September)

Event Time Altitude Azimuth Distance (km) Brightness Sun altitude
Rises 21:49:28 0° 251° (WSW) 2,663 4.7 -17.5°
Reaches altitude 10° 21:51:53 10° 241° (WSW) 1,773 3.6 -17.9°
Enters shadow 21:55:24 32° 182° (S) 928 1.6 -18.4°
